Weather History for Cleveland, OH

Change the Weather History Date:

Sunday, July 14, 2013

  Actual Average Record
Temperature  
Mean Temperature 78 °F 74 °F  
Max Temperature 88 °F 83 °F 99 °F (1954)
Min Temperature 68 °F 65 °F 51 °F (1888)
Degree Days  
Heating Degree Days 0 0  
Month to date heating degree days 0 0  
Since 1 June heating degree days 39 42  
Since 1 July heating degree days 0 0  
Cooling Degree Days 13 9  
Month to date cooling degree days 136 121  
Year to date cooling degree days 414 348  
Since 1 June cooling degree days 300 289  
Growing Degree Days 28 (Base 50)    
Moisture  
Dew Point 68 °F    
Average Humidity 71    
Maximum Humidity 87    
Minimum Humidity 55    
Precipitation  
Precipitation 0.00 in 0.11 in 1.15 in (1987)
Month to date precipitation 2.92 1.52  
Year to date precipitation 23.41 20.09  
Snow  
Snow 0.00 in 0.00 in - ()
Month to date snowfall 0.0 0.0  
Since 1 June snowfall 0.0 0.0  
Since 1 July snowfall 0.0 0.0  
Snow Depth 0.00 in    
Sea Level Pressure  
Sea Level Pressure 30.25 in    
Wind  
Wind Speed 5 mph (ENE)    
Max Wind Speed 13 mph    
Max Gust Speed 15 mph    
Visibility 10 miles    
Events      
T = Trace of Precipitation, MM = Missing Value Source: NWS Daily Summary

Daily Weather History Graph

Daily Weather History Graph

Search for Another Location

Airport:

Trip Planner

Search our weather history database for the weather conditions in past years. The results will help you decide how hot, cold, wet, or windy it might be!

Date:

Astronomy

Jul. 14, 2013 Rise Set
Actual Time 6:06 AM EDT 8:59 PM EDT
Civil Twilight 5:33 AM EDT 9:32 PM EDT
Nautical Twilight 4:51 AM EDT 10:14 PM EDT
Astronomical Twilight 4:03 AM EDT 11:02 PM EDT
Moon 12:26 PM EDT (7/14) No Moon Set
Length of Visible Light 15h 59m
Length of Day
14h 53m
Waxing Crescent, 35% of the Moon is Illuminated
Jul 14
Waxing Crescent
Jul 15
First Quarter
Jul 22
Full
Jul 29
Last Quarter
Aug 6
New

Hourly Weather History & Observations

Time (EDT) Temp. Heat Index Dew Point Humidity Pressure Visibility Wind Dir Wind Speed Gust Speed Precip Events Conditions
12:51 AM 73.9 °F - 66.0 °F 76% 30.23 in 10.0 mi ESE 5.8 mph - N/A   Clear
1:51 AM 73.9 °F - 64.9 °F 73% 30.23 in 10.0 mi ESE 3.5 mph - N/A   Clear
2:51 AM 73.0 °F - 64.9 °F 76% 30.22 in 10.0 mi ESE 3.5 mph - N/A   Clear
3:51 AM 71.1 °F - 64.9 °F 81% 30.22 in 10.0 mi Calm Calm - N/A   Clear
4:51 AM 71.1 °F - 64.9 °F 81% 30.22 in 10.0 mi Calm Calm - N/A   Clear
5:51 AM 68.0 °F - 64.0 °F 87% 30.24 in 10.0 mi Calm Calm - N/A   Clear
6:51 AM 72.0 °F - 66.0 °F 81% 30.26 in 10.0 mi East 4.6 mph - N/A   Partly Cloudy
7:51 AM 75.0 °F - 66.9 °F 76% 30.27 in 10.0 mi ESE 4.6 mph - N/A   Partly Cloudy
8:51 AM 79.0 °F - 68.0 °F 69% 30.27 in 10.0 mi SSE 10.4 mph - N/A   Partly Cloudy
9:51 AM 82.0 °F 85.5 °F 69.1 °F 65% 30.27 in 10.0 mi SSE 5.8 mph - N/A   Clear
10:51 AM 84.0 °F 87.0 °F 68.0 °F 58% 30.26 in 10.0 mi SW 3.5 mph - N/A   Clear
11:51 AM 84.9 °F 88.2 °F 68.0 °F 57% 30.26 in 10.0 mi Variable 3.5 mph - N/A   Mostly Cloudy
12:51 PM 88.0 °F 92.1 °F 69.1 °F 53% 30.26 in 10.0 mi Variable 4.6 mph - N/A   Mostly Cloudy
1:51 PM 86.0 °F 90.7 °F 70.0 °F 59% 30.26 in 10.0 mi North 8.1 mph - N/A   Mostly Cloudy
2:51 PM 84.9 °F 89.4 °F 70.0 °F 61% 30.26 in 10.0 mi North 10.4 mph - N/A   Overcast
3:51 PM 82.9 °F 86.5 °F 69.1 °F 63% 30.26 in 10.0 mi North 11.5 mph - N/A   Mostly Cloudy
4:51 PM 84.9 °F 88.8 °F 69.1 °F 59% 30.25 in 10.0 mi NNE 10.4 mph - N/A   Mostly Cloudy
5:51 PM 84.0 °F 87.8 °F 69.1 °F 61% 30.25 in 10.0 mi NE 11.5 mph - N/A   Mostly Cloudy
6:51 PM 82.0 °F 84.9 °F 68.0 °F 62% 30.25 in 10.0 mi NNE 9.2 mph - N/A   Mostly Cloudy
7:51 PM 84.0 °F 88.4 °F 70.0 °F 63% 30.24 in 10.0 mi NNE 6.9 mph - N/A   Scattered Clouds
8:51 PM 81.0 °F 84.1 °F 69.1 °F 67% 30.25 in 10.0 mi North 5.8 mph - N/A   Scattered Clouds
9:51 PM 81.0 °F 84.4 °F 70.0 °F 69% 30.25 in 10.0 mi NNE 3.5 mph - N/A   Scattered Clouds
10:51 PM 81.0 °F 84.4 °F 70.0 °F 69% 30.26 in 10.0 mi Calm Calm - N/A   Mostly Cloudy
11:51 PM 79.0 °F - 70.0 °F 74% 30.27 in 10.0 mi South 4.6 mph - N/A   Partly Cloudy